Regional Weather Roundup
Issued by NWS

Home | Current Version | Previous Version | Graphics & Text | Print | Product List | Glossary Off
Versions: 1 2 3 4 5 6 7 8 9 10 11 12 13 14 15 16 17 18 19 20 21 22 23 24 25 26 27 28 29 30 31 32 33 34 35 36 37 38 39 40 41 42 43 44 45 46 47 48 49 50

000
ASUS43 KLMK 270610
RWRKY
KENTUCKY REGIONAL WEATHER ROUNDUP
NATIONAL WEATHER SERVICE LOUISVILLE KY
100 AM EST TUE JAN 27 2015

NOTE "FAIR" INDICATES FEW OR NO CLOUDS BELOW 12,000 FEET
WITH NO SIGNIFICANT WEATHER AND/OR OBSTRUCTIONS TO VISIBILITY.

KYZ001>023-026-027-061>063-070>075-270700-
WESTERN AND SOUTH CENTRAL KENTUCKY

CITY           SKY/WX    TMP DP  RH WIND       PRES   REMARKS
PADUCAH        CLOUDY    37  30  75 SW7       29.90F WCI  32
HENDERSON      CLOUDY    30  27  86 S3        29.91F
OWENSBORO      FRZ RAIN  30  28  93 S6        29.92F FOG     WCI  24
HOPKINSVILLE   CLOUDY    34  31  88 SE3       29.92F
BOWLING GREEN  CLOUDY    32  29  88 CALM      29.93F
GLASGOW        CLOUDY    30  30 100 CALM      29.92F FOG
$$

KYZ024-025-028>034-038-045-046-053-270700-
NORTH CENTRAL KENTUCKY

CITY           SKY/WX    TMP DP  RH WIND       PRES   REMARKS
LOUISVILLE/SDF LGT SNOW  30  26  85 NW3       29.93F FOG
LOUISVILLE/LOU CLOUDY    29  26  89 CALM      29.93F FOG
FORT KNOX      FLURRIES  28  27  93 S1        29.90F
$$

KYZ035>037-039>044-047>052-055>060-089>105-270700-
NORTHEAST KENTUCKY

CITY           SKY/WX    TMP DP  RH WIND       PRES   REMARKS
LEXINGTON      CLOUDY    28  23  81 CALM      29.91F
COVINGTON      CLOUDY    24  16  71 E5        29.92F WCI  18
FRANKFORT      CLOUDY    29  23  78 CALM      29.91F
$$

KYZ054-064>069-076>088-106>120-270700-
SOUTHEAST KENTUCKY

CITY           SKY/WX    TMP DP  RH WIND       PRES   REMARKS
JACKSON        CLOUDY    26  22  84 CALM      29.89F
LONDON         CLOUDY    30  23  75 SW3       29.90F
SOMERSET       CLOUDY    30  28  93 W3        29.93F
MIDDLESBORO    CLOUDY    31  25  80 W3        29.92S
MONTICELLO     CLOUDY    30  28  92 CALM      29.94F
$$



USA.gov is the U.S. government's official web portal to all federal, state and local government web resources and services.